VE7MYA-10 Weather Reports


time (UTC)temp
F
wind
direction
speed
knots
gust
knots
rain 1hr
in
rain 24hr
in
rain mn
in
humidity
%
barometer
mb
20260906205412 73 48 2.6 3.5 0.00 0.00 0.00 45
20260906204911 73 48 2.6 3.5 0.00 0.00 0.00 45
20260906204411 70 132 5.2 7.8 0.00 0.00 0.00 48
20260906203911 70 132 5.2 7.8 0.00 0.00 0.00 48
20260906203411 70 132 5.2 7.8 0.00 0.00 0.00 48
20260906202911 71 5 3.5 6.1 0.00 0.00 0.00 47
20260906202411 71 5 3.5 6.1 0.00 0.00 0.00 47
20260906201911 72 347 3.5 7.0 0.00 0.00 0.00 47
20260906201411 72 347 3.5 7.0 0.00 0.00 0.00 47
20260906200911 71 34 2.6 6.1 0.00 0.00 0.00 47
20260906200411 71 34 2.6 6.1 0.00 0.00 0.00 47
20260906195911 71 34 2.6 6.1 0.00 0.00 0.00 47
20260906195411 70 212 2.6 4.3 0.00 0.00 0.00 49
20260906194411 70 233 3.5 6.1 0.00 0.00 0.00 49
20260906193911 70 233 3.5 6.1 0.00 0.00 0.00 49
20260906193411 70 233 3.5 6.1 0.00 0.00 0.00 49
20260906192911 67 177 4.3 5.2 0.00 0.00 0.00 52
20260906192411 67 177 4.3 5.2 0.00 0.00 0.00 52
20260906191911 68 16 2.6 4.3 0.00 0.00 0.00 51
20260906191411 68 16 2.6 4.3 0.00 0.00 0.00 51
20260906190911 68 70 3.5 7.0 0.00 0.00 0.00 50
20260906190411 68 70 3.5 7.0 0.00 0.00 0.00 50
20260906185911 68 70 3.5 7.0 0.00 0.00 0.00 50
20260906185411 66 143 3.5 6.1 0.00 0.00 0.00 53
20260906184911 66 143 3.5 6.1 0.00 0.00 0.00 53
20260906184411 65 258 2.6 4.3 0.00 0.00 0.00 54
20260906183911 65 258 2.6 4.3 0.00 0.00 0.00 54
20260906183411 65 258 2.6 4.3 0.00 0.00 0.00 54
20260906182911 64 73 2.6 5.2 0.00 0.00 0.00 55
20260906182411 64 73 2.6 5.2 0.00 0.00 0.00 55
20260906181911 64 57 4.3 6.1 0.00 0.00 0.00 54
20260906181411 64 57 4.3 6.1 0.00 0.00 0.00 54
20260906180911 64 158 2.6 4.3 0.00 0.00 0.00 54
20260906180411 64 158 2.6 4.3 0.00 0.00 0.00 54
20260906175911 64 158 2.6 4.3 0.00 0.00 0.00 54
20260906175411 64 90 3.5 4.3 0.00 0.00 0.00 54
20260906174911 64 90 3.5 4.3 0.00 0.00 0.00 54
20260906174411 63 134 3.5 5.2 0.00 0.00 0.00 56
20260906173911 63 134 3.5 5.2 0.00 0.00 0.00 56
20260906173411 63 134 3.5 5.2 0.00 0.00 0.00 56
20260906172911 60 120 4.3 6.1 0.00 0.00 0.00 60
20260906172411 60 120 4.3 6.1 0.00 0.00 0.00 60
20260906171911 61 148 2.6 4.3 0.00 0.00 0.00 59
20260906171411 61 148 2.6 4.3 0.00 0.00 0.00 59
20260906170911 61 108 1.7 3.5 0.00 0.00 0.00 59
20260906170411 61 108 1.7 3.5 0.00 0.00 0.00 59
20260906165911 61 108 1.7 3.5 0.00 0.00 0.00 59
20260906165411 58 157 3.5 4.3 0.00 0.00 0.00 63
20260906164911 58 157 3.5 4.3 0.00 0.00 0.00 63
20260906164411 56 146 4.3 5.2 0.00 0.00 0.00 66
20260906163911 56 146 4.3 5.2 0.00 0.00 0.00 66
20260906163411 56 146 4.3 5.2 0.00 0.00 0.00 66
20260906162911 58 137 3.5 6.1 0.00 0.00 0.00 63
20260906162411 58 137 3.5 6.1 0.00 0.00 0.00 63
20260906161911 56 152 3.5 4.3 0.00 0.00 0.00 68
20260906161411 56 152 3.5 4.3 0.00 0.00 0.00 68
20260906160911 53 159 3.5 5.2 0.00 0.00 0.00 73
20260906160411 53 159 3.5 5.2 0.00 0.00 0.00 73
20260906155911 53 159 3.5 5.2 0.00 0.00 0.00 73
20260906155411 54 157 4.3 7.8 0.00 0.00 0.00 71
20260906154911 54 157 4.3 7.8 0.00 0.00 0.00 71
20260906154411 51 128 0.0 2.6 0.00 0.00 0.00 77
20260906153911 51 128 0.0 2.6 0.00 0.00 0.00 77
20260906153411 51 128 0.0 2.6 0.00 0.00 0.00 77
20260906152911 50 166 2.6 4.3 0.00 0.00 0.00 79
20260906152411 50 166 2.6 4.3 0.00 0.00 0.00 79
20260906151911 49 118 1.7 3.5 0.00 0.00 0.00 81
20260906151411 49 118 1.7 3.5 0.00 0.00 0.00 81
20260906150911 47 135 1.7 4.3 0.00 0.00 0.00 85
20260906150411 47 135 1.7 4.3 0.00 0.00 0.00 85
20260906145911 47 135 1.7 4.3 0.00 0.00 0.00 85
20260906145411 46 114 0.9 3.5 0.00 0.00 0.00 89
20260906144911 46 114 0.9 3.5 0.00 0.00 0.00 89
20260906144411 45 354 0.9 2.6 0.00 0.00 0.00 92
20260906143911 45 354 0.9 2.6 0.00 0.00 0.00 92
20260906143411 45 354 0.9 2.6 0.00 0.00 0.00 92
20260906142911 44 112 0.0 0.9 0.00 0.00 0.00 92
20260906142411 44 112 0.0 0.9 0.00 0.00 0.00 92
20260906141911 44 0 0.0 0.0 0.00 0.00 0.00 92
20260906141411 44 0 0.0 0.0 0.00 0.00 0.00 92
20260906140911 44 67 0.0 0.9 0.00 0.00 0.00 92
20260906140411 44 67 0.0 0.9 0.00 0.00 0.00 92
20260906135911 44 67 0.0 0.9 0.00 0.00 0.00 92
20260906135411 44 355 0.9 1.7 0.00 0.00 0.00 91
20260906134911 44 355 0.9 1.7 0.00 0.00 0.00 91
20260906134411 45 0 0.0 0.0 0.00 0.00 0.00 90
20260906133911 45 0 0.0 0.0 0.00 0.00 0.00 90
20260906133411 45 0 0.0 0.0 0.00 0.00 0.00 90
20260906132911 45 315 0.0 1.7 0.00 0.00 0.00 89
20260906132411 45 315 0.0 1.7 0.00 0.00 0.00 89
20260906131911 45 0 0.0 0.0 0.00 0.00 0.00 89
20260906131411 45 0 0.0 0.0 0.00 0.00 0.00 89
20260906130911 46 0 0.0 0.0 0.00 0.00 0.00 88
20260906130411 46 0 0.0 0.0 0.00 0.00 0.00 88
20260906125911 46 0 0.0 0.0 0.00 0.00 0.00 88
20260906125411 47 77 0.9 2.6 0.00 0.00 0.00 86
20260906124911 47 77 0.9 2.6 0.00 0.00 0.00 86
20260906124411 47 0 0.0 0.0 0.00 0.00 0.00 85
20260906123911 47 0 0.0 0.0 0.00 0.00 0.00 85
20260906123411 47 0 0.0 0.0 0.00 0.00 0.00 85
20260906122911 48 288 0.9 2.6 0.00 0.00 0.00 84
20260906122411 48 288 0.9 2.6 0.00 0.00 0.00 84
20260906121911 48 94 0.9 3.5 0.00 0.00 0.00 84
20260906121411 48 94 0.9 3.5 0.00 0.00 0.00 84
20260906120911 48 26 0.9 2.6 0.00 0.00 0.00 84
20260906120411 48 26 0.9 2.6 0.00 0.00 0.00 84
20260906115911 48 26 0.9 2.6 0.00 0.00 0.00 84
20260906115411 48 45 0.0 1.7 0.00 0.00 0.00 84
20260906114911 48 45 0.0 1.7 0.00 0.00 0.00 84
20260906114411 48 90 1.7 4.3 0.00 0.00 0.00 84
20260906113911 48 90 1.7 4.3 0.00 0.00 0.00 84
20260906113411 48 90 1.7 4.3 0.00 0.00 0.00 84
20260906112911 48 315 0.9 2.6 0.00 0.00 0.00 85
20260906112411 48 315 0.9 2.6 0.00 0.00 0.00 85
20260906111911 47 0 0.0 0.0 0.00 0.00 0.00 85
20260906111411 47 0 0.0 0.0 0.00 0.00 0.00 85
20260906110911 48 315 0.0 0.9 0.00 0.00 0.00 84
20260906110411 48 315 0.0 0.9 0.00 0.00 0.00 84
20260906105911 48 315 0.0 0.9 0.00 0.00 0.00 84
20260906105411 48 33 1.7 3.5 0.00 0.00 0.00 83
20260906104911 48 33 1.7 3.5 0.00 0.00 0.00 83
20260906104411 49 270 0.0 1.7 0.00 0.00 0.00 81
20260906103911 49 270 0.0 1.7 0.00 0.00 0.00 81
20260906103411 49 270 0.0 1.7 0.00 0.00 0.00 81
20260906102911 49 7 0.0 0.9 0.00 0.00 0.00 81
20260906102411 49 7 0.0 0.9 0.00 0.00 0.00 81
20260906101911 49 6 0.9 2.6 0.00 0.00 0.00 81
20260906101411 49 6 0.9 2.6 0.00 0.00 0.00 81
20260906100911 49 0 0.0 0.9 0.00 0.00 0.00 82
20260906100411 49 0 0.0 0.9 0.00 0.00 0.00 82
20260906095911 49 0 0.0 0.9 0.00 0.00 0.00 82
20260906095411 50 69 0.9 3.5 0.00 0.00 0.00 81
20260906094911 50 69 0.9 3.5 0.00 0.00 0.00 81
20260906094411 50 0 0.0 2.6 0.00 0.00 0.00 81
20260906093911 50 0 0.0 2.6 0.00 0.00 0.00 81
20260906093411 50 0 0.0 2.6 0.00 0.00 0.00 81
20260906092911 50 357 0.9 3.5 0.00 0.00 0.00 81
20260906092411 50 357 0.9 3.5 0.00 0.00 0.00 81
20260906091911 50 355 0.0 1.7 0.00 0.00 0.00 81
20260906091411 50 355 0.0 1.7 0.00 0.00 0.00 81
20260906090911 51 25 1.7 3.5 0.00 0.00 0.00 81
20260906090411 51 25 1.7 3.5 0.00 0.00 0.00 81
20260906085911 51 25 1.7 3.5 0.00 0.00 0.00 81
20260906085411 51 315 0.0 1.7 0.00 0.00 0.00 79
20260906084911 51 315 0.0 1.7 0.00 0.00 0.00 79
20260906084411 52 292 0.0 1.7 0.00 0.00 0.00 77
20260906083911 52 292 0.0 1.7 0.00 0.00 0.00 77
20260906083411 52 292 0.0 1.7 0.00 0.00 0.00 77
20260906082911 53 20 1.7 3.5 0.00 0.00 0.00 77
20260906082411 53 20 1.7 3.5 0.00 0.00 0.00 77
20260906081911 54 59 2.6 4.3 0.00 0.00 0.00 74
20260906081411 54 59 2.6 4.3 0.00 0.00 0.00 74
20260906080911 53 0 0.0 2.6 0.00 0.00 0.00 75
20260906080411 53 0 0.0 2.6 0.00 0.00 0.00 75
20260906075911 53 0 0.0 2.6 0.00 0.00 0.00 75
20260906075411 54 6 0.9 1.7 0.00 0.00 0.00 75
20260906074911 54 6 0.9 1.7 0.00 0.00 0.00 75
20260906074411 55 11 1.7 3.5 0.00 0.00 0.00 72
20260906073911 55 11 1.7 3.5 0.00 0.00 0.00 72
20260906073411 55 11 1.7 3.5 0.00 0.00 0.00 72
20260906072911 56 89 2.6 7.8 0.00 0.00 0.00 71
20260906072411 56 89 2.6 7.8 0.00 0.00 0.00 71
20260906071911 56 62 1.7 2.6 0.00 0.00 0.00 70
20260906071411 56 62 1.7 2.6 0.00 0.00 0.00 70
20260906070911 56 97 2.6 7.0 0.00 0.00 0.00 69
20260906070411 56 97 2.6 7.0 0.00 0.00 0.00 69
20260906065911 56 97 2.6 7.0 0.00 0.00 0.00 69
20260906065411 56 46 1.7 4.3 0.00 0.00 0.00 70
20260906064911 56 46 1.7 4.3 0.00 0.00 0.00 70
20260906064411 56 28 2.6 4.3 0.00 0.00 0.00 70
20260906063911 56 28 2.6 4.3 0.00 0.00 0.00 70
20260906063411 56 28 2.6 4.3 0.00 0.00 0.00 70
20260906062911 57 28 0.9 1.7 0.00 0.00 0.00 70
20260906062411 57 28 0.9 1.7 0.00 0.00 0.00 70
20260906061911 58 0 0.0 1.7 0.00 0.00 0.00 67
20260906061411 58 0 0.0 1.7 0.00 0.00 0.00 67
20260906060911 58 91 1.7 7.0 0.00 0.00 0.00 66
20260906060411 58 91 1.7 7.0 0.00 0.00 0.00 66
20260906055911 58 91 1.7 7.0 0.00 0.00 0.00 66
20260906055411 58 79 2.6 4.3 0.00 0.00 0.00 66
20260906054911 58 79 2.6 4.3 0.00 0.00 0.00 66
20260906054411 58 83 0.9 3.5 0.00 0.00 0.00 66
20260906053911 58 83 0.9 3.5 0.00 0.00 0.00 66
20260906053411 58 83 0.9 3.5 0.00 0.00 0.00 66
20260906052911 58 49 1.7 7.0 0.00 0.00 0.00 67
20260906052411 58 49 1.7 7.0 0.00 0.00 0.00 67
20260906051911 57 5 1.7 3.5 0.00 0.00 0.00 69
20260906051411 57 5 1.7 3.5 0.00 0.00 0.00 69
20260906050911 57 51 2.6 4.3 0.00 0.00 0.00 68
20260906050411 57 51 2.6 4.3 0.00 0.00 0.00 68
20260906045911 57 51 2.6 4.3 0.00 0.00 0.00 68
20260906045411 57 12 0.9 2.6 0.00 0.00 0.00 70
20260906044911 57 12 0.9 2.6 0.00 0.00 0.00 70
20260906044411 57 18 1.7 4.3 0.00 0.00 0.00 71
20260906043911 57 18 1.7 4.3 0.00 0.00 0.00 71
20260906043411 57 18 1.7 4.3 0.00 0.00 0.00 71
20260906042911 57 347 1.7 2.6 0.00 0.00 0.00 70
20260906042411 57 347 1.7 2.6 0.00 0.00 0.00 70
20260906041911 58 327 0.0 2.6 0.00 0.00 0.00 70
20260906041411 58 327 0.0 2.6 0.00 0.00 0.00 70
20260906040911 58 20 1.7 3.5 0.00 0.00 0.00 69
20260906040411 58 20 1.7 3.5 0.00 0.00 0.00 69
20260906035911 58 20 1.7 3.5 0.00 0.00 0.00 69
20260906035411 59 2 0.9 3.5 0.00 0.00 0.00 68
20260906034911 59 2 0.9 3.5 0.00 0.00 0.00 68
20260906034411 60 354 0.9 1.7 0.00 0.00 0.00 67
20260906033911 60 354 0.9 1.7 0.00 0.00 0.00 67
20260906033411 60 354 0.9 1.7 0.00 0.00 0.00 67
20260906032911 61 14 0.9 1.7 0.00 0.00 0.00 65
20260906032411 61 14 0.9 1.7 0.00 0.00 0.00 65
20260906031911 63 352 0.9 1.7 0.00 0.00 0.00 63
20260906031411 63 352 0.9 1.7 0.00 0.00 0.00 63
20260906030911 65 0 0.0 0.0 0.00 0.00 0.00 60
20260906030411 65 0 0.0 0.0 0.00 0.00 0.00 60
20260906025911 65 0 0.0 0.0 0.00 0.00 0.00 60
20260906025411 68 355 0.9 2.6 0.00 0.00 0.00 58
20260906024911 68 355 0.9 2.6 0.00 0.00 0.00 58
20260906024411 73 346 0.9 3.5 0.00 0.00 0.00 48
20260906023911 73 346 0.9 3.5 0.00 0.00 0.00 48
20260906023411 73 346 0.9 3.5 0.00 0.00 0.00 48
20260906022911 75 31 0.9 2.6 0.00 0.00 0.00 44
20260906022411 75 31 0.9 2.6 0.00 0.00 0.00 44
20260906021911 75 42 1.7 2.6 0.00 0.00 0.00 41
20260906021411 75 42 1.7 2.6 0.00 0.00 0.00 41
20260906020911 75 58 2.6 4.3 0.00 0.00 0.00 42
20260906020411 75 58 2.6 4.3 0.00 0.00 0.00 42
20260906015911 75 58 2.6 4.3 0.00 0.00 0.00 42
20260906015411 76 123 2.6 7.0 0.00 0.00 0.00 38
20260906014911 76 123 2.6 7.0 0.00 0.00 0.00 38
20260906014411 77 154 2.6 5.2 0.00 0.00 0.00 38
20260906013911 77 154 2.6 5.2 0.00 0.00 0.00 38
20260906013411 77 154 2.6 5.2 0.00 0.00 0.00 38
20260906012911 77 134 3.5 4.3 0.00 0.00 0.00 37
20260906012411 77 134 3.5 4.3 0.00 0.00 0.00 37
20260906011911 78 136 4.3 7.8 0.00 0.00 0.00 36
20260906011411 78 136 4.3 7.8 0.00 0.00 0.00 36
20260906010911 79 113 4.3 8.7 0.00 0.00 0.00 36
20260906010411 79 113 4.3 8.7 0.00 0.00 0.00 36
20260906005911 79 113 4.3 8.7 0.00 0.00 0.00 36
20260906005411 79 133 4.3 7.0 0.00 0.00 0.00 35
20260906004911 79 133 4.3 7.0 0.00 0.00 0.00 35
20260906004411 79 145 4.3 6.1 0.00 0.00 0.00 36
20260906003912 79 145 4.3 6.1 0.00 0.00 0.00 36
20260906003411 79 145 4.3 6.1 0.00 0.00 0.00 36
20260906002911 79 135 4.3 6.1 0.00 0.00 0.00 35
20260906002411 79 135 4.3 6.1 0.00 0.00 0.00 35
20260906001911 79 107 4.3 7.8 0.00 0.00 0.00 35
20260906001411 79 107 4.3 7.8 0.00 0.00 0.00 35
20260906000911 79 157 5.2 7.8 0.00 0.00 0.00 34
20260906000411 79 157 5.2 7.8 0.00 0.00 0.00 34
20260905235911 79 157 5.2 7.8 0.00 0.00 0.00 34
20260905235411 79 137 5.2 8.7 0.00 0.00 0.00 35
20260905234911 79 137 5.2 8.7 0.00 0.00 0.00 35
20260905234411 80 56 1.7 3.5 0.00 0.00 0.00 35
20260905233911 80 56 1.7 3.5 0.00 0.00 0.00 35
20260905233411 80 56 1.7 3.5 0.00 0.00 0.00 35
20260905232911 79 142 6.1 8.7 0.00 0.00 0.00 35
20260905232411 79 142 6.1 8.7 0.00 0.00 0.00 35
20260905231911 79 159 2.6 7.0 0.00 0.00 0.00 35
20260905231411 79 159 2.6 7.0 0.00 0.00 0.00 35
20260905230911 79 97 5.2 7.0 0.00 0.00 0.00 35
20260905230411 79 97 5.2 7.0 0.00 0.00 0.00 35
20260905225911 79 97 5.2 7.0 0.00 0.00 0.00 35
20260905225411 79 139 3.5 7.0 0.00 0.00 0.00 35
20260905224911 79 139 3.5 7.0 0.00 0.00 0.00 35
20260905224411 79 119 6.1 9.6 0.00 0.00 0.00 35
20260905223911 79 119 6.1 9.6 0.00 0.00 0.00 35
20260905223411 79 119 6.1 9.6 0.00 0.00 0.00 35
20260905222911 77 129 5.2 7.0 0.00 0.00 0.00 36
20260905222411 77 129 5.2 7.0 0.00 0.00 0.00 36
20260905221911 78 148 4.3 7.8 0.00 0.00 0.00 35
20260905221411 78 148 4.3 7.8 0.00 0.00 0.00 35
20260905220912 76 182 5.2 10.4 0.00 0.00 0.00 38
20260905220411 76 182 5.2 10.4 0.00 0.00 0.00 38
20260905215911 76 182 5.2 10.4 0.00 0.00 0.00 38
20260905215411 76 139 5.2 7.8 0.00 0.00 0.00 37
20260905214911 76 139 5.2 7.8 0.00 0.00 0.00 37
20260905214411 77 140 3.5 6.1 0.00 0.00 0.00 37
20260905213911 77 140 3.5 6.1 0.00 0.00 0.00 37
20260905213411 77 140 3.5 6.1 0.00 0.00 0.00 37
20260905212911 75 161 4.3 8.7 0.00 0.00 0.00 38
20260905212411 75 161 4.3 8.7 0.00 0.00 0.00 38
20260905211911 76 139 4.3 6.1 0.00 0.00 0.00 38
20260905211411 76 139 4.3 6.1 0.00 0.00 0.00 38
20260905210911 76 133 4.3 7.8 0.00 0.00 0.00 39
20260905210411 76 133 4.3 7.8 0.00 0.00 0.00 39
20260905205911 76 133 4.3 7.8 0.00 0.00 0.00 39